Temperature
18 18 17 17 17 17 17 17 17 17 17 17 17 17 16 16 16 16 16 16 16 16 16 16 16 16 16 16 16 16 16 16 16 16 16 15 15 15 15 15 14 14 14
17 17 17 17 17 17 17 17 17 17 17 17 16 16 16 16 16 16 16 16 16 16 16 16 16 15 15 15 15 16 16 16 16 16 15 15 15 14 14 14 14 14 13
17 17 17 17 17 17 17 17 17 17 16 16 16 16 16 16 16 15 15 15 15 15 15 15 15 15 15 15 15 15 15 15 15 15 15 14 14 14 14 13 13 13 13
17 17 17 17 17 17 17 17 16 16 16 16 16 16 16 15 15 15 15 15 15 15 15 15 15 15 15 15 15 15 15 15 15 14 14 14 13 13 13 13 12 12 12
17 17 17 17 17 17 16 16 16 16 16 16 16 15 15 15 15 15 15 15 15 15 14 14 14 14 14 14 14 14 14 14 14 13 13 13 12 12 12 12 11 11 11
17 17 17 17 16 16 16 16 16 16 16 16 15 15 15 15 15 15 15 14 14 14 14 14 14 14 14 14 14 13 13 13 13 13 12 12 12 11 11 11 11 10 10
17 17 17 16 16 16 16 16 16 16 15 15 15 15 15 15 15 14 14 14 14 14 14 14 13 13 13 13 13 13 12 12 12 12 12 11 11 11 11 10 10 10 9
17 17 16 16 16 16 16 16 15 15 15 15 15 15 14 14 14 14 14 14 14 13 13 13 13 13 12 12 12 12 12 11 11 11 11 11 10 10 10 10 9 9 8
16 16 16 16 16 16 15 15 15 15 15 14 14 14 14 14 14 14 13 13 13 13 12 12 12 12 12 12 12 11 11 10 10 10 10 9 9 9 9 9 8 8 7
16 16 16 15 15 15 15 15 15 14 14 14 14 14 13 13 13 13 13 13 12 12 12 12 11 11 11 11 11 10 10 10 9 9 9 8 8 8 8 7 7 7 7
16 15 15 15 15 15 14 14 14 14 14 13 13 13 13 13 12 12 12 12 12 12 11 11 11 10 10 10 10 9 9 9 8 8 8 7 7 7 7 6 6 6 6
15 15 15 15 14 14 14 14 13 13 13 13 13 12 12 12 12 12 11 11 11 11 11 10 10 9 9 9 9 8 8 8 7 7 7 6 6 6 5 5 5 5 5
15 15 14 14 14 14 13 13 13 12 12 12 12 12 11 11 11 11 11 10 10 10 10 9 9 9 8 8 8 7 7 7 7 6 6 5 5 5 5 5 4 4 4
14 14 14 14 13 13 13 12 12 12 12 12 12 11 11 11 11 10 10 10 10 9 9 8 8 8 7 7 7 6 6 6 6 6 5 5 4 4 4 4 4 4 4
14 13 13 13 13 12 12 12 12 12 12 12 11 11 11 10 10 10 10 9 9 9 8 8 7 7 7 6 6 6 5 5 5 5 5 4 4 4 4 4 3 3 3
14 13 13 12 12 12 12 11 11 11 11 11 10 10 10 10 9 9 9 9 8 8 8 7 7 6 6 6 5 5 5 5 5 4 4 4 4 4 3 3 3 3 3
13 13 12 12 12 11 11 11 10 10 10 10 9 9 9 9 9 9 8 8 8 7 7 7 6 6 5 5 5 5 5 4 4 4 4 4 3 3 3 3 3 2 2
12 12 12 11 11 11 10 10 10 10 9 9 9 8 8 8 8 8 8 8 7 7 7 6 6 5 5 5 5 4 4 4 4 3 3 3 3 3 3 3 2 2 2
11 11 11 11 10 10 10 9 9 9 9 8 8 7 7 7 7 7 7 7 7 6 6 5 5 5 5 4 4 4 4 4 4 3 3 3 3 3 3 2 2 2 2
10 10 10 10 10 9 9 9 8 8 8 7 7 7 7 7 6 6 6 6 6 6 5 5 5 4 4 4 4 4 4 4 3 3 3 3 3 3 2 2 2 2 2
10 10 9 9 9 9 9 8 8 8 7 7 7 6 6 6 6 6 6 5 5 5 5 5 4 4 4 4 4 4 4 4 3 3 3 3 3 2 2 2 2 2 2
9 9 9 9 8 8 8 8 7 7 7 7 6 6 6 6 6 5 5 5 5 5 5 4 4 4 4 4 4 4 4 3 3 3 3 3 2 2 2 2 2 2 2
8 8 8 8 8 8 7 7 7 7 6 6 6 6 6 6 5 5 5 5 5 5 4 4 4 4 4 4 4 4 3 3 3 3 3 3 3 2 2 2 2 2 2
8 8 8 7 7 7 7 7 6 6 6 6 6 6 6 5 5 5 5 5 5 5 4 4 4 4 4 4 4 3 3 3 3 3 3 3 3 2 2 2 2 2 2
7 7 7 7 7 7 7 6 6 6 6 6 6 6 6 5 5 5 5 5 5 5 4 4 4 4 4 4 4 3 3 3 3 3 3 3 3 2 2 2 2 2 2
7 7 7 7 7 7 7 7 6 6 6 6 6 6 5 5 5 5 5 5 5 5 5 4 4 4 4 4 4 4 3 3 3 3 3 3 3 3 2 2 2 2 2
Wind_Speed
5 4 4 4 5 5 5 5 5 5 5 5 6 6 6 6 5 5 5 6 6 5 5 6 5 4 4 4 3 3 4 4 4 2 1 1 2 3 5 7 7 7 7
4 4 4 3 4 4 4 4 4 5 5 6 5 5 6 5 5 6 6 5 6 6 5 5 5 4 4 4 4 4 4 4 4 4 1 1 2 3 4 6 6 7 8
4 4 3 3 3 3 3 3 4 4 4 4 5 5 5 5 5 5 6 5 5 5 5 5 5 5 5 3 4 4 3 4 3 4 3 1 2 2 4 5 7 7 8
4 4 3 3 3 2 2 2 3 3 3 4 4 4 4 4 4 5 5 5 5 4 4 4 5 5 5 5 4 4 4 5 5 5 3 2 2 2 3 3 4 4 5
5 4 3 2 3 3 2 2 2 3 3 3 3 3 3 3 4 4 4 5 5 4 3 2 2 3 4 4 4 4 5 5 5 5 3 2 2 2 2 2 4 4 5
5 4 3 3 4 3 3 3 3 3 3 3 3 3 2 2 3 5 5 5 4 5 4 4 4 5 7 8 8 8 7 6 5 4 3 3 2 2 2 4 4 3 2
5 4 4 4 4 3 4 4 4 3 4 4 3 3 3 2 4 6 7 6 6 5 5 5 5 6 8 8 11 13 12 10 8 6 5 3 3 2 4 4 3 3 3
5 4 4 4 4 4 4 4 3 3 4 4 4 4 4 4 6 7 9 7 7 6 5 6 7 6 7 10 11 12 11 10 9 8 7 6 5 4 4 5 5 5 4
5 4 4 4 5 4 4 4 3 4 4 4 4 5 5 5 7 9 10 7 7 7 7 7 8 8 11 14 13 13 12 11 17 20 18 16 15 13 9 6 5 5 4
4 4 4 4 5 4 4 4 4 4 5 5 5 5 5 5 7 9 9 7 8 7 7 7 9 10 13 13 12 12 12 9 9 11 13 14 14 14 13 8 4 4 3
5 5 5 5 5 5 4 4 5 5 6 6 6 6 6 6 7 9 9 7 8 8 7 6 7 13 14 13 12 10 12 10 9 9 9 8 8 9 9 9 7 5 4
6 6 5 5 4 4 5 5 5 6 6 6 6 6 5 5 7 8 10 10 10 9 8 7 8 13 14 14 11 13 14 11 8 8 7 7 6 6 6 8 9 9 7
6 6 5 5 5 4 5 5 5 5 5 5 5 5 5 4 6 10 11 12 12 8 8 12 13 14 13 12 14 14 11 8 7 7 7 5 4 4 5 5 7 9 9
6 6 5 5 5 5 4 4 4 4 5 5 5 5 5 4 4 5 6 8 11 11 10 13 15 14 12 11 10 9 7 7 7 6 6 4 4 4 4 4 3 4 4
6 6 5 5 5 5 5 4 4 3 3 5 5 5 6 5 4 7 7 7 7 9 10 8 8 7 7 7 7 6 6 6 6 5 5 5 5 5 4 4 3 4 4
6 5 4 4 5 5 6 7 11 9 10 8 6 6 5 7 10 11 11 12 13 13 11 8 7 7 7 7 6 6 5 5 5 5 5 5 5 5 4 4 3 3 3
6 5 5 5 5 5 6 7 6 8 12 11 10 10 10 12 13 14 14 14 13 12 9 8 7 6 6 6 5 5 4 4 4 5 5 4 4 4 4 3 3 3 3
6 6 6 5 5 5 6 6 6 7 6 6 7 10 11 12 13 14 15 13 8 6 6 7 6 6 6 5 5 5 5 4 4 4 4 4 4 4 3 3 2 2 2
5 5 5 5 5 5 6 6 6 7 7 6 6 7 9 10 11 11 10 7 8 6 6 6 6 6 5 5 5 5 5 4 4 4 3 3 3 3 3 2 2 2 2
5 8 7 6 6 6 6 6 7 7 7 6 6 5 5 5 6 6 5 6 6 6 6 6 5 5 5 5 5 5 4 4 4 3 3 3 2 2 2 2 1 1 1
5 7 9 7 5 5 6 6 6 6 6 6 5 4 6 6 6 6 5 5 5 5 5 5 5 5 4 5 5 5 5 4 3 3 3 2 2 2 2 1 1 1 1
6 6 5 6 6 6 6 6 6 6 6 6 5 5 7 5 5 5 5 4 4 4 4 5 4 4 5 5 5 5 5 4 3 3 3 3 2 2 2 1 1 1 1
6 6 6 6 6 7 6 5 5 5 5 5 5 5 5 5 5 5 5 4 4 4 5 5 5 5 5 6 7 7 5 5 4 5 4 3 2 2 1 1 0 1 2
6 7 7 6 6 6 6 5 5 5 5 5 5 5 5 4 5 5 4 4 4 4 5 6 6 7 8 7 6 6 6 6 6 6 6 4 3 2 1 1 1 2 2
6 6 6 6 6 5 5 5 5 5 5 5 5 4 4 4 4 4 4 4 5 5 6 6 7 8 9 9 8 7 7 8 8 7 6 5 4 3 2 2 2 2 3
5 6 5 5 5 5 5 5 5 5 4 4 4 4 5 5 5 5 4 5 5 5 6 6 8 9 9 9 9 9 9 9 9 9 7 5 4 3 3 3 3 3 4
Wind_Direction
167 174 177 185 186 185 193 199 199 197 192 189 192 193 193 194 188 187 197 194 194 197 195 194 204 198 193 192 187 185 186 175 190 199 89 46 64 83 86 94 93 89 84
157 158 169 170 166 178 194 198 191 194 194 190 186 190 196 196 192 191 200 198 192 192 194 192 203 199 197 192 188 191 189 182 177 180 148 78 67 83 88 84 81 81 83
141 145 148 152 160 176 191 193 189 190 189 183 182 189 194 194 194 195 195 191 187 187 189 193 198 190 197 195 187 188 184 171 159 157 158 118 82 83 84 78 71 65 77
136 139 143 149 155 167 165 168 175 168 168 175 178 185 187 183 184 186 183 179 173 172 182 191 193 191 193 184 176 172 157 142 135 134 135 119 99 87 100 100 83 63 63
117 116 123 118 113 118 127 134 135 142 151 150 156 168 174 177 188 181 175 168 161 150 140 142 150 145 151 151 156 154 149 143 138 135 132 114 107 112 118 114 112 93 61
112 108 101 102 98 96 98 102 109 115 116 118 128 139 148 172 159 156 149 142 139 136 127 112 102 99 101 99 100 106 118 137 146 138 133 130 131 126 115 122 124 121 97
114 109 102 105 103 95 95 94 98 100 103 105 106 106 105 105 125 132 132 131 127 127 126 120 108 99 101 103 92 83 78 85 108 128 126 127 134 140 133 119 104 96 97
115 112 107 105 103 99 97 94 91 94 96 97 97 104 102 89 103 117 118 112 108 103 102 108 110 101 102 110 102 87 75 65 78 89 98 93 91 101 114 124 118 101 87
122 120 119 118 111 104 100 95 93 97 92 86 87 93 96 86 94 108 115 109 101 92 88 91 103 103 104 107 104 100 91 81 80 86 86 83 80 81 91 98 100 99 78
140 131 122 121 120 114 106 97 94 101 100 95 84 83 93 92 94 105 113 115 110 102 90 86 91 104 108 107 110 110 106 100 95 86 77 71 70 67 66 69 86 94 90
134 122 116 117 120 118 111 104 104 108 104 98 92 81 80 87 93 98 106 115 119 113 104 95 93 102 103 101 103 107 113 110 99 92 84 73 65 61 57 60 68 83 89
129 123 118 116 118 118 117 112 110 115 112 107 101 88 73 78 93 100 102 106 116 117 115 110 105 103 100 98 97 102 104 102 100 95 89 81 74 66 58 62 68 71 76
128 125 119 111 106 109 118 119 113 113 117 117 114 108 95 85 88 94 100 105 109 108 109 110 106 102 97 93 96 101 102 104 106 101 96 87 77 72 73 70 64 67 64
127 124 119 114 107 100 102 110 118 125 129 128 127 124 115 108 110 112 109 106 102 103 105 103 97 91 89 90 92 90 88 96 103 103 99 87 79 77 70 67 68 59 59
124 121 117 114 114 103 90 78 98 95 134 143 145 146 142 140 140 133 131 125 123 120 117 107 102 102 99 95 91 87 91 97 97 98 100 95 90 83 70 62 65 62 59
128 126 122 117 115 117 113 88 64 74 81 89 105 125 119 121 122 117 112 113 116 121 115 116 115 114 114 113 110 102 95 100 104 107 105 103 101 95 82 67 64 67 60
129 129 124 123 124 124 124 123 110 76 68 73 86 100 110 116 116 115 111 107 108 113 112 120 121 121 119 118 118 114 108 104 106 110 108 106 105 98 87 77 73 67 50
118 121 122 123 126 124 123 122 123 122 108 81 68 86 103 111 116 118 117 109 103 100 114 123 126 126 126 125 124 120 115 111 107 107 108 110 110 104 96 86 74 63 44
119 119 115 113 115 117 118 119 118 116 115 110 99 83 89 99 100 107 115 118 127 125 119 122 127 130 129 129 128 127 125 124 121 119 118 117 115 108 102 92 77 58 43
114 119 117 117 118 118 120 122 121 121 120 119 120 121 119 109 110 114 113 116 124 128 128 130 132 134 136 137 136 132 128 127 128 126 128 125 120 118 116 104 83 52 18
117 122 120 117 118 122 124 126 126 125 125 125 122 123 130 127 128 131 129 127 133 137 139 141 142 144 144 142 141 141 141 142 145 144 142 140 139 132 124 115 91 30 350
117 118 120 120 120 120 121 122 124 125 129 127 119 114 117 121 129 133 135 137 137 142 150 150 151 157 162 161 158 154 155 157 162 161 156 153 151 146 137 123 76 3 343
116 118 116 114 117 119 117 118 122 126 129 130 131 133 137 136 141 146 147 146 147 150 154 156 159 163 166 168 171 170 171 178 184 179 170 169 168 167 164 170 271 314 323
121 123 123 122 122 127 128 128 130 132 135 138 141 145 147 147 150 152 154 155 159 164 169 172 174 174 174 176 180 185 189 190 185 184 182 181 184 187 192 214 251 282 298
123 126 128 130 134 136 137 137 138 140 145 150 153 154 154 154 158 163 167 171 173 178 183 182 182 183 185 187 190 194 199 200 200 195 190 188 194 201 213 234 254 279 293
127 129 131 135 140 145 149 152 154 157 160 162 164 166 169 172 175 177 180 182 184 187 190 194 196 196 196 199 204 207 207 208 208 205 198 197 202 215 223 239 261 272 288
Height
1521 1522 1524 1525 1527 1528 1530 1532 1533 1536 1537 1539 1541 1543 1544 1546 1548 1550 1552 1554 1555 1557 1559 1560 1561 1563 1564 1566 1567 1568 1569 1570 1571 1571 1573 1574 1574 1575 1576 1576 1577 1577 1577
1519 1521 1522 1523 1525 1526 1527 1529 1530 1532 1533 1535 1537 1539 1541 1542 1544 1545 1547 1549 1551 1552 1554 1555 1557 1558 1560 1561 1563 1564 1565 1566 1567 1567 1569 1570 1571 1572 1572 1573 1574 1574 1574
1518 1519 1520 1521 1522 1524 1525 1526 1527 1529 1530 1531 1533 1535 1537 1538 1540 1541 1543 1544 1546 1548 1549 1551 1552 1554 1555 1557 1558 1559 1560 1562 1563 1564 1564 1566 1567 1568 1569 1570 1570 1570 1571
1517 1518 1519 1520 1521 1522 1523 1524 1525 1526 1527 1528 1530 1532 1533 1535 1536 1538 1539 1540 1542 1543 1545 1547 1548 1550 1551 1552 1554 1555 1556 1558 1559 1560 1561 1562 1563 1564 1565 1566 1566 1567 1567
1516 1517 1518 1519 1520 1521 1522 1523 1523 1524 1525 1526 1527 1529 1530 1531 1533 1534 1536 1537 1538 1539 1541 1543 1544 1546 1547 1549 1550 1551 1553 1554 1555 1556 1557 1558 1559 1561 1562 1563 1563 1564 1564
1516 1517 1518 1519 1520 1520 1521 1522 1522 1523 1524 1525 1526 1527 1528 1529 1530 1531 1533 1534 1535 1536 1538 1539 1541 1542 1544 1545 1547 1548 1550 1551 1552 1553 1554 1555 1557 1558 1559 1560 1560 1561 1561
1516 1517 1518 1519 1519 1520 1521 1521 1522 1522 1523 1524 1524 1526 1526 1527 1528 1529 1530 1531 1532 1534 1535 1537 1538 1539 1540 1542 1544 1545 1547 1548 1550 1551 1552 1553 1554 1556 1557 1557 1558 1558 1558
1515 1516 1517 1518 1519 1520 1520 1521 1522 1522 1523 1523 1524 1525 1526 1526 1527 1527 1528 1530 1531 1532 1533 1535 1536 1537 1538 1540 1541 1543 1545 1546 1548 1549 1551 1552 1553 1553 1554 1555 1556 1556 1557
1515 1516 1517 1518 1518 1519 1520 1520 1521 1522 1522 1523 1523 1524 1525 1525 1526 1527 1527 1528 1529 1531 1532 1534 1535 1536 1538 1539 1540 1541 1543 1545 1547 1548 1549 1550 1551 1552 1553 1554 1554 1555 1555
1514 1515 1516 1517 1518 1518 1519 1520 1520 1521 1522 1522 1523 1524 1524 1525 1526 1527 1527 1528 1529 1530 1532 1534 1535 1536 1537 1538 1539 1541 1542 1544 1546 1547 1549 1550 1551 1552 1553 1554 1554 1554 1554
1513 1514 1515 1516 1517 1518 1518 1519 1520 1520 1521 1522 1522 1523 1524 1525 1526 1527 1528 1528 1529 1530 1532 1533 1535 1537 1538 1539 1540 1542 1544 1546 1547 1549 1550 1551 1552 1553 1553 1553 1554 1554 1554
1511 1513 1514 1515 1516 1517 1517 1518 1519 1520 1520 1521 1522 1523 1524 1525 1526 1527 1528 1529 1530 1531 1532 1534 1536 1537 1539 1540 1541 1543 1545 1547 1548 1550 1551 1552 1553 1553 1554 1554 1554 1554 1555
1510 1511 1512 1513 1514 1515 1516 1517 1518 1519 1519 1520 1521 1522 1523 1525 1526 1527 1528 1529 1530 1531 1533 1535 1537 1539 1540 1541 1543 1545 1546 1548 1549 1550 1551 1553 1554 1555 1555 1556 1556 1556 1555
1508 1510 1511 1512 1513 1514 1515 1516 1517 1518 1519 1520 1521 1522 1523 1524 1526 1527 1528 1529 1531 1532 1534 1536 1538 1539 1541 1543 1544 1546 1548 1549 1551 1552 1553 1554 1555 1556 1556 1557 1557 1557 1556
1507 1508 1509 1511 1512 1513 1514 1515 1516 1517 1518 1519 1520 1522 1523 1524 1526 1528 1528 1530 1531 1532 1534 1536 1538 1540 1542 1544 1546 1547 1549 1550 1552 1553 1554 1555 1556 1557 1558 1558 1558 1558 1557
1505 1506 1508 1509 1510 1511 1513 1514 1515 1516 1518 1519 1520 1521 1523 1525 1526 1528 1529 1530 1532 1534 1535 1536 1538 1541 1543 1545 1547 1549 1551 1552 1554 1555 1555 1556 1557 1558 1558 1559 1559 1559 1558
1504 1505 1506 1508 1509 1510 1512 1513 1514 1516 1517 1518 1520 1521 1523 1524 1526 1528 1529 1531 1533 1535 1536 1538 1540 1542 1544 1546 1548 1550 1552 1554 1555 1555 1557 1557 1558 1559 1559 1559 1559 1559 1558
1503 1505 1506 1507 1508 1510 1511 1513 1514 1515 1516 1518 1520 1522 1523 1525 1527 1528 1530 1532 1534 1536 1538 1539 1541 1543 1546 1548 1550 1552 1553 1554 1555 1556 1557 1558 1559 1559 1560 1560 1560 1559 1559
1503 1504 1505 1507 1508 1510 1511 1512 1514 1515 1517 1518 1520 1522 1524 1526 1528 1530 1532 1533 1535 1537 1539 1541 1543 1545 1547 1549 1551 1553 1554 1555 1556 1557 1558 1559 1559 1560 1560 1560 1560 1559 1559
1502 1504 1505 1507 1508 1510 1511 1513 1514 1516 1518 1519 1521 1523 1525 1527 1528 1530 1532 1534 1536 1538 1540 1542 1545 1547 1548 1550 1552 1553 1555 1556 1557 1558 1558 1559 1560 1560 1560 1560 1560 1559 1558
1503 1504 1506 1507 1509 1510 1512 1513 1515 1517 1519 1520 1523 1525 1527 1529 1530 1532 1534 1536 1538 1540 1542 1544 1546 1548 1550 1551 1553 1554 1555 1556 1557 1558 1558 1559 1559 1560 1560 1559 1559 1559 1558
1503 1505 1506 1508 1510 1511 1513 1515 1517 1518 1520 1522 1524 1527 1528 1530 1532 1534 1536 1538 1540 1542 1544 1545 1547 1549 1551 1552 1554 1555 1555 1556 1557 1558 1558 1559 1559 1559 1559 1559 1558 1558 1557
1505 1506 1508 1509 1511 1513 1514 1516 1518 1520 1522 1524 1526 1528 1530 1532 1534 1536 1537 1539 1541 1543 1545 1547 1549 1550 1552 1553 1554 1555 1555 1556 1557 1557 1557 1558 1558 1558 1558 1558 1557 1557 1556
1506 1508 1509 1511 1512 1514 1516 1518 1520 1522 1524 1526 1528 1530 1532 1534 1536 1537 1539 1541 1543 1544 1546 1548 1550 1551 1552 1553 1554 1554 1555 1555 1556 1556 1557 1557 1557 1557 1557 1556 1556 1555 1554
1508 1510 1511 1513 1514 1516 1518 1520 1522 1524 1526 1528 1530 1531 1533 1535 1537 1539 1540 1542 1543 1545 1547 1548 1550 1551 1552 1553 1553 1554 1554 1554 1555 1555 1555 1555 1555 1555 1555 1555 1554 1553 1553
1510 1512 1514 1515 1517 1519 1521 1522 1524 1526 1527 1529 1531 1533 1534 1536 1538 1539 1541 1542 1544 1545 1547 1548 1549 1550 1551 1552 1552 1553 1553 1553 1553 1553 1553 1553 1553 1553 1553 1553 1552 1551 1550